Regional Weather Roundup
Issued by NWS

Home | Current Version | Previous Version | Graphics & Text | Print | Product List | Glossary On
Versions: 1 2 3 4 5 6 7 8 9 10 11 12 13 14 15 16 17 18 19 20 21 22 23 24 25 26 27 28 29 30 31 32 33 34 35 36 37 38 39 40 41 42 43 44 45 46 47 48 49 50
000
ASUS45 KABQ 040710
RWRNM
WEATHER ROUNDUP FOR NEW MEXICO
NATIONAL WEATHER SERVICE ALBUQUERQUE NM
1200 AM MST WED MAR 04 2015

NOTE: "FAIR" MEANS FEW OR NO CLOUDS BELOW 12,000 FEET AGL WITH NO
       SIGNIFICANT WEATHER OR OBSTRUCTIONS TO VISION.

      THIS PRODUCT IS RELEASED AS TWO VERSIONS.  ONE VERSION NEAR
      THE TOP OF THE HOUR CONTAINING PRELIMINARY DATA FROM ALBUQUERQUE
      AND OTHER STATIONS.  A FINAL VERSION WITH ADDITIONAL DATA IS
      ISSUED ABOUT 10 MINUTES AFTER THE HOUR.

NMZ501-503-504-510>518-040800-
NORTHWEST PLATEAU/NORTHCENTRAL MOUNTAINS

CITY           SKY/WX    TMP DP  RH WIND       PRES   REMARKS
FARMINGTON     MOCLDY    31  28  89 CALM      29.87S
LOS ALAMOS     PTCLDY    33  20  58 CALM      29.87S
SANTA FE       CLEAR     30  20  66 N5        29.86S WCI  25
TAOS           MOCLDY    27  19  74 SW10      29.86S WCI  17
ANGEL FIRE     FLURRIES  28  20  72 SW12      29.84F WCI  18

$$
NMZ402-403-502-505>509-040800-
WESTCENTRAL MOUNTAINS/SOUTHWEST MOUNTAINS

CITY           SKY/WX    TMP DP  RH WIND       PRES   REMARKS
GALLUP         MOCLDY    30  27  88 S5        29.89F WCI  25
GRANTS         PTCLDY    24  22  91 NW8       29.91S WCI  15
SILVER CITY    CLEAR     36  27  69 NW10      29.88S WCI  28

$$
NMZ407-409-411-412-040800-
SOUTHERN DESERTS

CITY           SKY/WX    TMP DP  RH WIND       PRES   REMARKS
LORDSBURG      FAIR      39  32  75 W8        29.86F WCI  34
DEMING         CLEAR     40  35  83 CALM      29.86S
LAS CRUCES     CLEAR     44  43  96 SW6       29.87S
HOLLOMAN AFB   PTCLDY    49  43  81 SW10      29.83F
ALAMOGORDO     PTCLDY    48  43  81 S10       29.86S
T OR C         CLEAR     40  27  59 W8        29.84F WCI  34

$$
NMZ519>523-040800-
CENTRAL VALLEYS/CENTRAL HIGHLANDS

CITY           SKY/WX    TMP DP  RH WIND       PRES   REMARKS
ALBUQUERQUE    PTCLDY    41  27  57 N8        29.88F
DOUBLE EAGLE   CLEAR     32  26  77 NW12      29.88F WCI  23
MORIARTY ARPT  FAIR      33  22  63 W8        29.88S WCI  26
CLINES CORNERS CLEAR     28  20  71 NW10      29.85F WCI  19
BELEN          FAIR      32  24  71 W6        29.88S WCI  27
SOCORRO          N/A     43  22  42 NW5       29.86S

$$
NMZ524>526-539-540-040800-
SOUTHCENTRAL MOUNTAINS

CITY           SKY/WX    TMP DP  RH WIND       PRES   REMARKS
RUIDOSO        MOCLDY    37  30  75 W8        29.88S WCI  31

$$
NMZ527>531-040800-
NORTHEAST HIGHLANDS/NORTHEAST PLAINS

CITY           SKY/WX    TMP DP  RH WIND       PRES   REMARKS
LAS VEGAS      PTCLDY    29  17  61 SW9       29.83S WCI  20
RATON          CLEAR     28  22  78 W5        29.81R WCI  23
CLAYTON        FRZ RAIN  27  26  96 E13       29.88F VSB 1/2 WCI  16

$$
NMZ532>537-040800-
EASTCENTRAL PLAINS

CITY           SKY/WX    TMP DP  RH WIND       PRES   REMARKS
TUCUMCARI      CLOUDY    35  32  88 NE15      29.87R WCI  25
CANNON AFB     PTCLDY    46  42  85 W7        29.81S
CLOVIS AIRPORT MOCLDY    45  41  87 W7        29.80F

$$
NMZ028-029-538-040800-
SOUTHEAST PLAINS

CITY           SKY/WX    TMP DP  RH WIND       PRES   REMARKS
ROSWELL        MOCLDY    46  40  79 S3        29.83S
ARTESIA        MOCLDY    50  48  93 S9        29.84F
CARLSBAD       CLOUDY    56  41  57 S10       29.82F
HOBBS          CLOUDY    50  50 100 S10       29.88R


$$



USA.gov is the U.S. government's official web portal to all federal, state and local government web resources and services.